Regional Weather Roundup
Issued by NWS

Home | Current Version | Previous Version | Graphics & Text | Print | Product List | Glossary On
Versions: 1 2 3 4 5 6 7 8 9 10 11 12 13 14 15 16 17 18 19 20 21 22 23 24 25 26 27 28 29 30 31 32 33 34 35 36 37 38 39 40 41 42 43 44 45 46 47 48 49 50
000
ASUS45 KCYS 292210
RWRWY

WYOMING REGIONAL WEATHER ROUNDUP
NATIONAL WEATHER SERVICE CHEYENNE WY
400 PM MDT SAT AUG 29 2015

NOTE:  "FAIR" INDICATES FEW OR NO CLOUDS BELOW 12,000 FEET
WITH NO SIGNIFICANT WEATHER AND/OR OBSTRUCTIONS TO VISIBILITY.

WYZ001-292300-
YELLOWSTONE NATIONAL PARK

CITY           SKY/WX    TMP DP  RH WIND       PRES   REMARKS
LK YELLOWSTONE   N/A     63  47  55 VRB6      30.29F
W YELLOWSTONE  NOT AVBL

$$
WYZ002>013-054>058-071-098>099-292300-
NORTHERN WYOMING

CITY           SKY/WX    TMP DP  RH WIND       PRES   REMARKS
JACKSON        SUNNY     81  45  28 S9        30.15F
CODY           FAIR      90  37  15 W10       30.01F
GREYBULL       FAIR      96  29   9 S6        29.91F HX  90
WORLAND        FAIR      96  36  12 SW10      29.93F HX  91
SHERIDAN       FAIR      98  34  10 NE9       29.90F HX  92
BUFFALO        FAIR      96  27   8 S9        29.99F HX  90
GILLETTE       FAIR      96  36  12 S16G40    29.96F HX  91
HULETT         FAIR      91  37  15 S13G21    29.99F
NEWCASTLE      FAIR      91  30  11 S10       30.02F

$$
WYZ014>020-022>026-101>103-292300-
CENTRAL WYOMING

CITY           SKY/WX    TMP DP  RH WIND       PRES   REMARKS
BIG PINEY      FAIR      83  35  18 W10G17    30.21F
PINEDALE       MOCLDY    81  32  17 SW8G17    30.22F
DUBOIS         MOCLDY    75  32  20 W15G26    30.21S
LANDER         FAIR      93  33  12 S20G26    30.04F
RIVERTON       FAIR      92  34  13 VRB5      30.06F
CASPER         FAIR      91  28  10 SW12G21   30.08F
DOUGLAS        FAIR      94  31  10 S10G17    30.07F

$$
WYZ021-027>030-104>119-292300-
SOUTHERN WYOMING

CITY           SKY/WX    TMP DP  RH WIND       PRES   REMARKS
EVANSTON       FAIR      85  36  17 SW16G25   30.23F
KEMMERER       FAIR      82  30  15 SW16G22   30.24F
FORT BRIDGER   CLOUDY    84  34  16 SW8G16    30.25S
ROCK SPRINGS   FAIR      85  28  12 VRB3      30.20F
DIXON          FAIR      87  27  11 S10       30.25F
RAWLINS        FAIR      86  27  11 SW12G20   30.24F
SARATOGA       FAIR      82  30  15 E7        30.27F
LARAMIE        FAIR      82  27  13 VRB5      30.27F
CHEYENNE       FAIR      84  35  17 S6G17     30.20F
TORRINGTON     FAIR      94  39  14 S16G23    30.03F HX  90
PINE BLUFFS    FAIR      88  32  13 S10G16    30.16F

$$



USA.gov is the U.S. government's official web portal to all federal, state and local government web resources and services.